This is the latest recevied weather packets stored in our database for station/object DC4AT. If no packets are shown the sender has not sent any weather packets the latest 10 day(s).
| Time | Temp. | Humidity | Pressure | Rain* | Wind** | Luminosity | Snow |
|---|---|---|---|---|---|---|---|
| 1777783421 | 8.89° C | 83% | 1013.4 hPa | 0 mm | - | 25 W/m² | - |
| 1777782821 | 8.89° C | 83% | 1013.4 hPa | 0 mm | - | 16 W/m² | - |
| 1777782221 | 8.89° C | 83% | 1013.5 hPa | 0 mm | - | 14 W/m² | - |
| 1777781621 | 8.89° C | 83% | 1013.5 hPa | 0 mm | - | 12 W/m² | - |
| 1777781021 | 9.44° C | 83% | 1013.6 hPa | 0 mm | - | 7 W/m² | - |
| 1777780421 | 9.44° C | 82% | 1013.6 hPa | 0 mm | - | 0 W/m² | - |
| 1777779821 | 9.44° C | 81% | 1013.6 hPa | 0 mm | - | 0 W/m² | - |
| 1777779221 | 9.44° C | 80% | 1013.7 hPa | 0 mm | - | 0 W/m² | - |
| 1777778621 | 10° C | 79% | 1013.6 hPa | 0 mm | - | 0 W/m² | - |
| 1777778021 | 10° C | 79% | 1013.6 hPa | 0 mm | - | 0 W/m² | - |
| 1777777421 | 10° C | 81% | 1013.6 hPa | 0 mm | - | 0 W/m² | - |
| 1777776821 | 10° C | 80% | 1013.6 hPa | 0 mm | - | 0 W/m² | - |
| 1777776221 | 10.56° C | 79% | 1013.6 hPa | 0 mm | - | 0 W/m² | - |
| 1777775621 | 10.56° C | 78% | 1013.6 hPa | 0 mm | - | 0 W/m² | - |
| 1777775021 | 10.56° C | 78% | 1013.7 hPa | 0 mm | - | 0 W/m² | - |
| 1777774421 | 11.11° C | 76% | 1013.7 hPa | 0 mm | - | 0 W/m² | - |
| 1777767821 | 12.22° C | 73% | 1014.6 hPa | 0 mm | - | 0 W/m² | - |
| 1777761221 | 14.44° C | 64% | 1014.7 hPa | 0 mm | - | 0 W/m² | - |
| 1777760622 | 14.44° C | 64% | 1014.8 hPa | 0 mm | - | 0 W/m² | - |
| 1777760022 | 15° C | 63% | 1014.8 hPa | 0 mm | - | 0 W/m² | - |
| 1777759422 | 15° C | 62% | 1014.8 hPa | 0 mm | - | 0 W/m² | - |
| 1777758822 | 15° C | 63% | 1014.9 hPa | 0 mm | - | 0 W/m² | - |
| 1777758222 | 15.56° C | 63% | 1015 hPa | 0 mm | - | 0 W/m² | - |
| 1777757622 | 16.11° C | 61% | 1015.1 hPa | 0 mm | - | 0 W/m² | - |
| 1777757022 | 16.67° C | 59% | 1015.1 hPa | 0 mm | - | 0 W/m² | - |
* Rain latest hour (hover to see other rain measurements)
** Current wind speed in m/s (hover to see current wind gust speed)